TimeCDT,TemperatureF,Dew PointF,Humidity,Sea Level PressureIn,VisibilityMPH,Wind Direction,Wind SpeedMPH,Gust SpeedMPH,PrecipitationIn,Events,Conditions,WindDirDegrees,DateUTC
12:53 AM,62.1,55.0,78,29.91,10.0,SSW,3.5,-,N/A,,Clear,210,2013-08-02 05:53:00
1:53 AM,62.1,57.0,84,29.90,10.0,WSW,5.8,-,N/A,,Mostly Cloudy,250,2013-08-02 06:53:00
2:53 AM,63.0,59.0,87,29.91,7.0,SW,9.2,-,0.03,Rain,Light Rain,230,2013-08-02 07:53:00
3:53 AM,64.0,60.1,87,29.88,10.0,South,4.6,-,0.01,,Overcast,190,2013-08-02 08:53:00
4:51 AM,62.6,60.8,94,29.88,3.0,South,9.2,-,0.02,Rain-Thunderstorm,Rain,190,2013-08-02 09:51:00
4:53 AM,63.0,60.1,90,29.88,3.0,SSW,9.2,-,0.02,Rain-Thunderstorm,Light Rain,200,2013-08-02 09:53:00
5:06 AM,62.6,60.8,94,29.88,7.0,South,10.4,-,0.01,Rain,Light Rain,180,2013-08-02 10:06:00
5:53 AM,64.0,60.1,87,29.89,5.0,SW,8.1,-,0.06,Rain,Rain,220,2013-08-02 10:53:00
6:07 AM,62.6,60.8,94,29.90,2.0,SW,9.2,-,0.06,Rain,Heavy Rain,220,2013-08-02 11:07:00
6:23 AM,62.6,60.8,94,29.89,4.0,SSW,10.4,-,0.08,Rain,Light Rain,210,2013-08-02 11:23:00
6:31 AM,62.6,60.8,94,29.90,1.8,SW,10.4,-,0.12,Rain,Heavy Rain,220,2013-08-02 11:31:00
6:39 AM,62.6,60.8,94,29.88,3.0,SSW,12.7,-,0.12,Rain,Light Rain,200,2013-08-02 11:39:00
6:53 AM,63.0,61.0,93,29.87,8.0,SSW,10.4,-,0.13,,Overcast,200,2013-08-02 11:53:00
7:53 AM,64.9,62.1,90,29.86,8.0,South,8.1,-,N/A,,Scattered Clouds,170,2013-08-02 12:53:00
8:53 AM,68.0,63.0,84,29.86,10.0,South,8.1,-,N/A,,Mostly Cloudy,190,2013-08-02 13:53:00
9:53 AM,70.0,64.0,81,29.87,10.0,WSW,6.9,-,N/A,,Mostly Cloudy,250,2013-08-02 14:53:00
10:53 AM,73.9,64.9,73,29.87,10.0,West,10.4,-,0.00,,Mostly Cloudy,280,2013-08-02 15:53:00
11:53 AM,75.9,66.0,71,29.87,10.0,West,9.2,-,N/A,,Mostly Cloudy,260,2013-08-02 16:53:00
12:53 PM,77.0,66.0,69,29.87,10.0,NW,10.4,-,N/A,,Mostly Cloudy,310,2013-08-02 17:53:00
1:53 PM,80.1,64.0,58,29.87,10.0,WNW,9.2,-,N/A,,Mostly Cloudy,290,2013-08-02 18:53:00
2:53 PM,80.1,62.1,54,29.87,10.0,WNW,10.4,-,N/A,,Mostly Cloudy,290,2013-08-02 19:53:00
3:04 PM,80.6,62.6,54,29.87,10.0,West,10.4,-,N/A,,Partly Cloudy,280,2013-08-02 20:04:00
3:53 PM,81.0,62.1,52,29.86,10.0,WNW,8.1,-,N/A,,Partly Cloudy,290,2013-08-02 20:53:00
4:53 PM,80.1,61.0,52,29.86,10.0,WNW,11.5,-,N/A,,Clear,300,2013-08-02 21:53:00
5:53 PM,77.0,61.0,58,29.86,10.0,NW,5.8,-,N/A,,Clear,310,2013-08-02 22:53:00
6:53 PM,75.9,61.0,60,29.88,10.0,NW,5.8,-,N/A,,Clear,310,2013-08-02 23:53:00
7:53 PM,73.9,59.0,59,29.90,10.0,WNW,8.1,-,N/A,,Clear,300,2013-08-03 00:53:00
8:53 PM,72.0,60.1,66,29.91,10.0,WNW,5.8,-,N/A,,Partly Cloudy,300,2013-08-03 01:53:00
9:53 PM,70.0,59.0,68,29.93,10.0,NW,5.8,-,N/A,,Clear,320,2013-08-03 02:53:00
10:53 PM,70.0,59.0,68,29.94,10.0,NNW,3.5,-,N/A,,Clear,340,2013-08-03 03:53:00
11:53 PM,66.9,57.9,73,29.96,10.0,NW,3.5,-,N/A,,Clear,320,2013-08-03 04:53:00